| time (UTC) | temp F | wind direction | speed knots | gust knots | rain 1hr in | rain 24hr in | rain mn in | humidity % | barometer mb |
| 20260902090440 | 61 | 231 | 15.6 | 17.4 | 0.00 | 0.00 | 0.00 | 81 | 1007.1 |
| 20260902084438 | 61 | 234 | 15.6 | 18.2 | 0.00 | 0.00 | 0.00 | 82 | 1007.1 |
| 20260902074110 | 59 | 241 | 15.6 | 18.2 | 0.00 | 0.00 | 0.00 | 88 | 1007.2 |
| 20260902070438 | 59 | 243 | 16.5 | 19.1 | 0.00 | 0.00 | 0.00 | 90 | 1007.0 |
| 20260902064438 | 59 | 244 | 13.9 | 16.5 | 0.00 | 0.00 | 0.00 | 90 | 1006.8 |
| 20260902062439 | 58 | 245 | 16.5 | 17.4 | 0.00 | 0.00 | 0.00 | 89 | 1006.9 |
| 20260902060440 | 59 | 245 | 13.9 | 17.4 | 0.00 | 0.00 | 0.00 | 90 | 1007.0 |
| 20260902054439 | 59 | 239 | 12.2 | 13.9 | 0.00 | 0.00 | 0.00 | 91 | 1007.0 |
| 20260902052439 | 59 | 239 | 11.3 | 13.9 | 0.00 | 0.00 | 0.00 | 91 | 1007.0 |
| 20260902050440 | 59 | 243 | 13.0 | 14.8 | 0.00 | 0.00 | 0.00 | 91 | 1007.0 |
| 20260902024442 | 60 | 209 | 9.6 | 10.4 | 0.00 | 0.00 | 0.00 | 94 | 1007.3 |
| 20260902000439 | 60 | 205 | 10.4 | 11.3 | 0.00 | 0.00 | 0.00 | 87 | 1007.8 |
| 20260901230440 | 61 | 210 | 9.6 | 9.6 | 0.00 | 0.00 | 0.00 | 86 | 1008.0 |
| 20260901214439 | 60 | 196 | 8.7 | 9.6 | 0.00 | 0.00 | 0.00 | 81 | 1008.2 |
| 20260901210438 | 60 | 193 | 7.8 | 8.7 | 0.00 | 0.00 | 0.00 | 80 | 1008.2 |
| 20260901204438 | 60 | 183 | 7.8 | 9.6 | 0.00 | 0.00 | 0.00 | 80 | 1008.2 |
| 20260901200438 | 59 | 167 | 7.8 | 8.7 | 0.00 | 0.00 | 0.00 | 78 | 1008.3 |
| 20260901184438 | 59 | 135 | 3.5 | 4.3 | 0.00 | 0.00 | 0.00 | 76 | 1008.3 |
| 20260901182437 | 60 | 115 | 3.5 | 4.3 | 0.00 | 0.00 | 0.00 | 74 | 1008.3 |
| 20260901180436 | 60 | 92 | 2.6 | 3.5 | 0.00 | 0.00 | 0.00 | 73 | 1008.3 |
| 20260901174437 | 60 | 56 | 2.6 | 3.5 | 0.00 | 0.00 | 0.00 | 72 | 1008.2 |
| 20260901172439 | 60 | 33 | 2.6 | 3.5 | 0.00 | 0.00 | 0.00 | 71 | 1008.2 |
| 20260901154435 | 60 | 359 | 4.3 | 5.2 | 0.00 | 0.00 | 0.00 | 74 | 1008.1 |
| 20260901150436 | 60 | 356 | 3.5 | 5.2 | 0.00 | 0.00 | 0.00 | 72 | 1008.2 |
| 20260901144436 | 59 | 6 | 4.3 | 5.2 | 0.00 | 0.00 | 0.00 | 75 | 1008.3 |
| 20260901142436 | 59 | 5 | 5.2 | 6.1 | 0.00 | 0.00 | 0.00 | 74 | 1008.3 |
| 20260901140436 | 59 | 5 | 6.1 | 7.0 | 0.00 | 0.00 | 0.00 | 76 | 1008.5 |
| 20260901134436 | 59 | 357 | 6.1 | 7.0 | 0.00 | 0.00 | 0.00 | 76 | 1008.5 |
| 20260901132436 | 59 | 344 | 7.0 | 7.8 | 0.00 | 0.00 | 0.00 | 73 | 1008.5 |
| 20260901130435 | 59 | 349 | 7.8 | 8.7 | 0.00 | 0.00 | 0.00 | 76 | 1008.4 |
| 20260901124436 | 59 | 341 | 7.0 | 8.7 | 0.00 | 0.00 | 0.00 | 75 | 1008.4 |
| 20260901114436 | 59 | 339 | 8.7 | 10.4 | 0.00 | 0.00 | 0.00 | 80 | 1008.3 |
| 20260901112434 | 60 | 347 | 7.0 | 8.7 | 0.00 | 0.00 | 0.00 | 79 | 1008.2 |
| 20260901104435 | 60 | 346 | 8.7 | 9.6 | 0.00 | 0.00 | 0.00 | 82 | 1008.2 |
| 20260901102106 | 60 | 337 | 10.4 | 11.3 | 0.00 | 0.00 | 0.00 | 83 | 1008.0 |
| 20260901100434 | 60 | 334 | 10.4 | 11.3 | 0.00 | 0.00 | 0.00 | 83 | 1007.9 |
| 20260901094437 | 60 | 337 | 8.7 | 10.4 | 0.00 | 0.00 | 0.00 | 86 | 1007.8 |